User: anonymous   Login
Location: Barnston
(51.8500°N, 0.4000°E)
Time: 20:07:27
(UTC+00:00)
Language:

Cosmos 1867 - Orbit

View from above orbital plane
View from above orbital plane
View from above satellite
View from above satellite

Ground track
Ground track

The orbit data is extracted from the following two-line orbital elements,

1 18187U 87060A   24062.56088053  .00000032  00000-0  49874-4 0  9996
2 18187  65.0099 210.6955 0019822 278.3624  81.5213 14.31273296914426
Epoch (UTC): 02 March 2024 13:27:40
Eccentricity: 0.0019822
inclination: 65.0099°
perigee height: 773 km
apogee height: 801 km
right ascension of ascending node: 210.6955°
argument of perigee: 278.3624°
revolutions per day: 14.31273296
mean anomaly at epoch: 81.5213°
orbit number at epoch: 91442

The dashed part of the orbit path shows where the satellite is in the earth's shadow,  

DLR